Year,Month,Day,Hour,Minute,Value (Times are PST for temperature in C)
2013,10,29,00,00,2.70
2013,10,29,00,01,2.70
2013,10,29,00,02,2.70
2013,10,29,00,03,2.70
2013,10,29,00,04,2.70
2013,10,29,00,05,2.70
2013,10,29,00,06,2.70
2013,10,29,00,07,2.70
2013,10,29,00,08,2.70
2013,10,29,00,09,2.70
2013,10,29,00,10,2.60
2013,10,29,00,11,2.60
2013,10,29,00,12,2.60
2013,10,29,00,17,2.40
2013,10,29,00,18,2.40
2013,10,29,00,19,2.40
2013,10,29,00,20,2.40
2013,10,29,00,21,2.40
2013,10,29,00,22,2.40
2013,10,29,00,23,2.40
2013,10,29,00,24,2.30
2013,10,29,00,25,2.30
2013,10,29,00,26,2.30
2013,10,29,00,27,2.30
2013,10,29,00,28,2.30
2013,10,29,00,29,2.30
2013,10,29,00,30,2.20
2013,10,29,00,31,2.20
2013,10,29,00,32,2.20
2013,10,29,00,33,2.20
2013,10,29,00,34,2.20
2013,10,29,00,35,2.20
2013,10,29,00,36,2.20
2013,10,29,00,37,2.20
2013,10,29,00,38,2.20
2013,10,29,00,39,2.20
2013,10,29,00,40,2.20
2013,10,29,00,41,2.20
2013,10,29,00,42,2.20
2013,10,29,00,43,2.20
2013,10,29,00,44,2.20
2013,10,29,00,45,2.20
2013,10,29,00,46,2.20
2013,10,29,00,47,2.20
2013,10,29,00,48,2.10
2013,10,29,00,49,2.10
2013,10,29,00,50,2.10
2013,10,29,00,51,2.10
2013,10,29,00,52,2.10
2013,10,29,00,53,2.10
2013,10,29,00,54,2.10
2013,10,29,00,55,2.00
2013,10,29,00,56,2.00
2013,10,29,00,57,2.00
2013,10,29,00,58,2.00
2013,10,29,00,59,2.00
2013,10,29,01,00,1.90
2013,10,29,01,01,1.90
2013,10,29,01,02,1.90
2013,10,29,01,03,1.90
2013,10,29,01,04,1.90
2013,10,29,01,05,1.90
2013,10,29,01,06,1.90
2013,10,29,01,07,1.90
2013,10,29,01,08,1.90
2013,10,29,01,09,1.90
2013,10,29,01,10,1.90
2013,10,29,01,11,1.90
2013,10,29,01,12,2.00
2013,10,29,01,13,2.00
2013,10,29,01,14,2.00
2013,10,29,01,15,2.00
2013,10,29,01,16,2.00
2013,10,29,01,17,2.10
2013,10,29,01,18,2.10
2013,10,29,01,19,2.10
2013,10,29,01,20,2.20
2013,10,29,01,21,2.20
2013,10,29,01,22,2.20
2013,10,29,01,23,2.20
2013,10,29,01,24,2.20
2013,10,29,01,25,2.20
2013,10,29,01,26,2.20
2013,10,29,01,27,2.20
2013,10,29,01,28,2.20
2013,10,29,01,29,2.20
2013,10,29,01,30,2.10
2013,10,29,01,31,2.20
2013,10,29,01,32,2.20
2013,10,29,01,33,2.20
2013,10,29,01,34,2.10
2013,10,29,01,35,2.10
2013,10,29,01,36,2.10
2013,10,29,01,37,2.20
2013,10,29,01,38,2.20
2013,10,29,01,39,2.20
2013,10,29,01,40,2.20
2013,10,29,01,41,2.10
2013,10,29,01,42,2.10
2013,10,29,01,43,2.10
2013,10,29,01,44,2.10
2013,10,29,01,45,2.00
2013,10,29,01,46,2.00
2013,10,29,01,47,2.00
2013,10,29,01,48,2.00
2013,10,29,01,49,2.00
2013,10,29,01,50,2.00
2013,10,29,01,51,2.00
2013,10,29,01,52,1.90
2013,10,29,01,53,1.90
2013,10,29,01,54,1.90
2013,10,29,01,55,1.90
2013,10,29,01,56,1.90
2013,10,29,01,57,1.90
2013,10,29,01,58,1.90
2013,10,29,01,59,1.80
2013,10,29,02,00,1.90
2013,10,29,02,01,1.90
2013,10,29,02,02,1.90
2013,10,29,02,03,1.90
2013,10,29,02,04,1.90
2013,10,29,02,05,1.90
2013,10,29,02,06,1.90
2013,10,29,02,07,1.90
2013,10,29,02,08,1.90
2013,10,29,02,09,1.80
2013,10,29,02,10,1.80
2013,10,29,02,11,1.80
2013,10,29,02,12,1.80
2013,10,29,02,13,1.80
2013,10,29,02,14,1.80
2013,10,29,02,15,1.70
2013,10,29,02,16,1.70
2013,10,29,02,17,1.70
2013,10,29,02,18,1.70
2013,10,29,02,19,1.70
2013,10,29,02,20,1.70
2013,10,29,02,21,1.70
2013,10,29,02,22,1.60
2013,10,29,02,23,1.60
2013,10,29,02,24,1.60
2013,10,29,02,25,1.50
2013,10,29,02,26,1.50
2013,10,29,02,27,1.50
2013,10,29,02,28,1.40
2013,10,29,02,29,1.40
2013,10,29,02,30,1.40
2013,10,29,02,31,1.40
2013,10,29,02,32,1.40
2013,10,29,02,33,1.40
2013,10,29,02,34,1.40
2013,10,29,02,35,1.40
2013,10,29,02,36,1.40
2013,10,29,02,37,1.40
2013,10,29,02,38,1.40
2013,10,29,02,39,1.40
2013,10,29,02,40,1.30
2013,10,29,02,41,1.30
2013,10,29,02,42,1.30
2013,10,29,02,43,1.30
2013,10,29,02,44,1.30
2013,10,29,02,45,1.30
2013,10,29,02,46,1.30
2013,10,29,02,47,1.30
2013,10,29,02,48,1.30
2013,10,29,02,49,1.30
2013,10,29,02,50,1.30
2013,10,29,02,51,1.30
2013,10,29,02,52,1.30
2013,10,29,02,53,1.30
2013,10,29,02,54,1.30
2013,10,29,02,55,1.30
2013,10,29,02,56,1.30
2013,10,29,02,57,1.30
2013,10,29,02,58,1.30
2013,10,29,02,59,1.30
2013,10,29,03,00,1.30
2013,10,29,03,01,1.30
2013,10,29,03,02,1.30
2013,10,29,03,03,1.30
2013,10,29,03,04,1.30
2013,10,29,03,05,1.30
2013,10,29,03,06,1.20
2013,10,29,03,07,1.20
2013,10,29,03,08,1.20
2013,10,29,03,09,1.20
2013,10,29,03,10,1.20
2013,10,29,03,11,1.20
2013,10,29,03,12,1.20
2013,10,29,03,13,1.20
2013,10,29,03,14,1.20
2013,10,29,03,15,1.20
2013,10,29,03,16,1.20
2013,10,29,03,17,1.20
2013,10,29,03,18,1.20
2013,10,29,03,19,1.20
2013,10,29,03,20,1.20
2013,10,29,03,21,1.20
2013,10,29,03,22,1.20
2013,10,29,03,23,1.20
2013,10,29,03,24,1.20
2013,10,29,03,25,1.10
2013,10,29,03,26,1.10
2013,10,29,03,27,1.10
2013,10,29,03,28,1.10
2013,10,29,03,29,1.10
2013,10,29,03,30,1.10
2013,10,29,03,31,1.10
2013,10,29,03,32,1.10
2013,10,29,03,33,1.10
2013,10,29,03,34,1.10
2013,10,29,03,35,1.10
2013,10,29,03,36,1.10
2013,10,29,03,37,1.20
2013,10,29,03,38,1.20
2013,10,29,03,39,1.10
2013,10,29,03,40,1.10
2013,10,29,03,41,1.10
2013,10,29,03,42,1.10
2013,10,29,03,43,1.10
2013,10,29,03,44,1.10
2013,10,29,03,45,1.00
2013,10,29,03,46,1.00
2013,10,29,03,47,1.00
2013,10,29,03,48,0.90
2013,10,29,03,49,0.90
2013,10,29,03,50,0.90
2013,10,29,03,51,0.90
2013,10,29,03,52,0.80
2013,10,29,03,53,0.80
2013,10,29,03,54,0.80
2013,10,29,03,55,0.80
2013,10,29,03,56,0.70
2013,10,29,03,57,0.70
2013,10,29,03,58,0.70
2013,10,29,03,59,0.70
2013,10,29,04,00,0.70
2013,10,29,04,01,0.70
2013,10,29,04,02,0.70
2013,10,29,04,03,0.70
2013,10,29,04,04,0.70
2013,10,29,04,05,0.70
2013,10,29,04,06,0.70
2013,10,29,04,07,0.70
2013,10,29,04,08,0.70
2013,10,29,04,09,0.70
2013,10,29,04,10,0.70
2013,10,29,04,11,0.70
2013,10,29,04,12,0.70
2013,10,29,04,13,0.70
2013,10,29,04,14,0.70
2013,10,29,04,15,0.60
2013,10,29,04,16,0.60
2013,10,29,04,17,0.60
2013,10,29,04,18,0.60
2013,10,29,04,19,0.60
2013,10,29,04,20,0.60
2013,10,29,04,21,0.60
2013,10,29,04,22,0.60
2013,10,29,04,23,0.60
2013,10,29,04,24,0.60
2013,10,29,04,25,0.50
2013,10,29,04,26,0.60
2013,10,29,04,27,0.50
2013,10,29,04,28,0.60
2013,10,29,04,29,0.60
2013,10,29,04,30,0.60
2013,10,29,04,31,0.60
2013,10,29,04,32,0.50
2013,10,29,04,33,0.50
2013,10,29,04,34,0.50
2013,10,29,04,35,0.50
2013,10,29,04,36,0.50
2013,10,29,04,37,0.50
2013,10,29,04,38,0.50
2013,10,29,04,39,0.50
2013,10,29,04,40,0.40
2013,10,29,04,41,0.40
2013,10,29,04,42,0.40
2013,10,29,04,43,0.40
2013,10,29,04,44,0.40
2013,10,29,04,45,0.40
2013,10,29,04,46,0.30
2013,10,29,04,47,0.30
2013,10,29,04,48,0.30
2013,10,29,04,49,0.30
2013,10,29,04,50,0.30
2013,10,29,04,51,0.30
2013,10,29,04,52,0.30
2013,10,29,04,53,0.30
2013,10,29,04,54,0.20
2013,10,29,04,55,0.20
2013,10,29,04,56,0.20
2013,10,29,04,57,0.20
2013,10,29,04,58,0.20
2013,10,29,04,59,0.20
2013,10,29,05,00,0.20
2013,10,29,05,01,0.20
2013,10,29,05,02,0.20
2013,10,29,05,03,0.20
2013,10,29,05,04,0.20
2013,10,29,05,05,0.20
2013,10,29,05,06,0.20
2013,10,29,05,07,0.20
2013,10,29,05,08,0.20
2013,10,29,05,09,0.20
2013,10,29,05,10,0.20
2013,10,29,05,11,0.20
2013,10,29,05,12,0.20
2013,10,29,05,13,0.30
2013,10,29,05,14,0.30
2013,10,29,05,15,0.30
2013,10,29,05,16,0.40
2013,10,29,05,17,0.40
2013,10,29,05,18,0.40
2013,10,29,05,19,0.40
2013,10,29,05,20,0.40
2013,10,29,05,21,0.40
2013,10,29,05,22,0.40
2013,10,29,05,23,0.40
2013,10,29,05,24,0.30
2013,10,29,05,25,0.30
2013,10,29,05,26,0.30
2013,10,29,05,27,0.30
2013,10,29,05,28,0.30
2013,10,29,05,29,0.30
2013,10,29,05,30,0.30
2013,10,29,05,31,0.30
2013,10,29,05,32,0.30
2013,10,29,05,33,0.30
2013,10,29,05,34,0.30
2013,10,29,05,35,0.30
2013,10,29,05,36,0.30
2013,10,29,05,37,0.30
2013,10,29,05,38,0.30
2013,10,29,05,39,0.30
2013,10,29,05,40,0.30
2013,10,29,05,41,0.30
2013,10,29,05,42,0.30
2013,10,29,05,43,0.30
2013,10,29,05,44,0.30
2013,10,29,05,45,0.20
2013,10,29,05,46,0.30
2013,10,29,05,47,0.20
2013,10,29,05,48,0.20
2013,10,29,05,49,0.20
2013,10,29,05,50,0.20
2013,10,29,05,51,0.20
2013,10,29,05,52,0.20
2013,10,29,05,53,0.20
2013,10,29,05,54,0.10
2013,10,29,05,55,0.10
2013,10,29,05,56,0.10
2013,10,29,05,57,0.10
2013,10,29,05,58,0.10
2013,10,29,05,59,0.10
2013,10,29,06,00,0.10
2013,10,29,06,01,0.00
2013,10,29,06,02,0.00
2013,10,29,06,03,0.00
2013,10,29,06,04,0.00
2013,10,29,06,05,0.00
2013,10,29,06,06,0.00
2013,10,29,06,07,0.00
2013,10,29,06,08,0.00
2013,10,29,06,09,0.00
2013,10,29,06,10,0.00
2013,10,29,06,11,0.00
2013,10,29,06,12,0.00
2013,10,29,06,13,0.00
2013,10,29,06,14,0.00
2013,10,29,06,15,0.00
2013,10,29,06,16,0.00
2013,10,29,06,17,0.00
2013,10,29,06,18,0.10
2013,10,29,06,19,0.00
2013,10,29,06,20,0.00
2013,10,29,06,21,0.00
2013,10,29,06,22,0.00
2013,10,29,06,23,0.00
2013,10,29,06,24,0.00
2013,10,29,06,25,0.10
2013,10,29,06,26,0.10
2013,10,29,06,27,0.10
2013,10,29,06,28,0.10
2013,10,29,06,29,0.10
2013,10,29,06,30,0.10
2013,10,29,06,31,0.10
2013,10,29,06,32,0.10
2013,10,29,06,33,0.10
2013,10,29,06,34,0.10
2013,10,29,06,35,0.00
2013,10,29,06,36,0.00
2013,10,29,06,37,-0.10
2013,10,29,06,38,-0.10
2013,10,29,06,39,-0.10
2013,10,29,06,40,-0.10
2013,10,29,06,41,-0.20
2013,10,29,06,42,-0.20
2013,10,29,06,43,-0.20
2013,10,29,06,44,-0.20
2013,10,29,06,45,-0.20
2013,10,29,06,46,-0.20
2013,10,29,06,47,-0.20
2013,10,29,06,48,-0.20
2013,10,29,06,49,-0.20
2013,10,29,06,50,-0.20
2013,10,29,06,51,-0.20
2013,10,29,06,52,-0.10
2013,10,29,06,53,-0.20
2013,10,29,06,54,-0.10
2013,10,29,06,55,-0.10
2013,10,29,06,56,-0.20
2013,10,29,06,57,-0.20
2013,10,29,06,58,-0.20
2013,10,29,06,59,-0.20
2013,10,29,07,00,-0.20
2013,10,29,07,01,-0.20
2013,10,29,07,02,-0.20
2013,10,29,07,03,-0.20
2013,10,29,07,04,-0.30
2013,10,29,07,05,-0.30
2013,10,29,07,06,-0.30
2013,10,29,07,07,-0.30
2013,10,29,07,08,-0.30
2013,10,29,07,09,-0.30
2013,10,29,07,10,-0.30
2013,10,29,07,11,-0.30
2013,10,29,07,12,-0.30
2013,10,29,07,13,-0.30
2013,10,29,07,14,-0.30
2013,10,29,07,15,-0.30
2013,10,29,07,16,-0.30
2013,10,29,07,17,-0.30
2013,10,29,07,18,-0.30
2013,10,29,07,19,-0.30
2013,10,29,07,20,-0.30
2013,10,29,07,21,-0.30
2013,10,29,07,22,-0.30
2013,10,29,07,23,-0.30
2013,10,29,07,24,-0.30
2013,10,29,07,25,-0.30
2013,10,29,07,26,-0.30
2013,10,29,07,27,-0.30
2013,10,29,07,28,-0.30
2013,10,29,07,29,-0.40
2013,10,29,07,30,-0.40
2013,10,29,07,31,-0.40
2013,10,29,07,32,-0.40
2013,10,29,07,33,-0.40
2013,10,29,07,34,-0.40
2013,10,29,07,35,-0.40
2013,10,29,07,36,-0.50
2013,10,29,07,37,-0.50
2013,10,29,07,38,-0.50
2013,10,29,07,39,-0.50
2013,10,29,07,40,-0.50
2013,10,29,07,41,-0.50
2013,10,29,07,42,-0.50
2013,10,29,07,43,-0.50
2013,10,29,07,44,-0.50
2013,10,29,07,45,-0.50
2013,10,29,07,46,-0.50
2013,10,29,07,47,-0.50
2013,10,29,07,48,-0.50
2013,10,29,07,49,-0.50
2013,10,29,07,50,-0.50
2013,10,29,07,51,-0.50
2013,10,29,07,52,-0.50
2013,10,29,07,53,-0.50
2013,10,29,07,54,-0.50
2013,10,29,07,55,-0.50
2013,10,29,07,56,-0.50
2013,10,29,07,57,-0.50
2013,10,29,07,58,-0.50
2013,10,29,07,59,-0.50
2013,10,29,08,00,-0.50
2013,10,29,08,01,-0.40
2013,10,29,08,02,-0.40
2013,10,29,08,03,-0.40
2013,10,29,08,04,-0.40
2013,10,29,08,05,-0.40
2013,10,29,08,06,-0.40
2013,10,29,08,07,-0.40
2013,10,29,08,08,-0.40
2013,10,29,08,09,-0.40
2013,10,29,08,10,-0.40
2013,10,29,08,11,-0.40
2013,10,29,08,12,-0.40
2013,10,29,08,13,-0.40
2013,10,29,08,14,-0.40
2013,10,29,08,15,-0.40
2013,10,29,08,16,-0.40
2013,10,29,08,17,-0.40
2013,10,29,08,18,-0.40
2013,10,29,08,19,-0.40
2013,10,29,08,20,-0.40
2013,10,29,08,21,-0.40
2013,10,29,08,22,-0.40
2013,10,29,08,23,-0.40
2013,10,29,08,24,-0.40
2013,10,29,08,25,-0.40
2013,10,29,08,26,-0.40
2013,10,29,08,27,-0.40
2013,10,29,08,28,-0.40
2013,10,29,08,29,-0.40
2013,10,29,08,30,-0.40
2013,10,29,08,31,-0.40
2013,10,29,08,32,-0.40
2013,10,29,08,33,-0.40
2013,10,29,08,34,-0.40
2013,10,29,08,35,-0.40
2013,10,29,08,36,-0.40
2013,10,29,08,37,-0.40
2013,10,29,08,38,-0.40
2013,10,29,08,39,-0.40
2013,10,29,08,40,-0.40
2013,10,29,08,41,-0.50
2013,10,29,08,42,-0.50
2013,10,29,08,43,-0.50
2013,10,29,08,44,-0.50
2013,10,29,08,45,-0.50
2013,10,29,08,46,-0.50
2013,10,29,08,47,-0.50
2013,10,29,08,48,-0.50
2013,10,29,08,49,-0.50
2013,10,29,08,50,-0.50
2013,10,29,08,51,-0.50
2013,10,29,08,52,-0.50
2013,10,29,08,53,-0.50
2013,10,29,08,54,-0.50
2013,10,29,08,55,-0.50
2013,10,29,08,56,-0.50
2013,10,29,08,57,-0.50
2013,10,29,08,58,-0.50
2013,10,29,08,59,-0.40
2013,10,29,09,00,-0.40
2013,10,29,09,01,-0.40
2013,10,29,09,02,-0.40
2013,10,29,09,03,-0.40
2013,10,29,09,04,-0.40
2013,10,29,09,05,-0.30
2013,10,29,09,06,-0.30
2013,10,29,09,07,-0.30
2013,10,29,09,08,-0.30
2013,10,29,09,09,-0.30
2013,10,29,09,10,-0.30
2013,10,29,09,11,-0.30
2013,10,29,09,12,-0.20
2013,10,29,09,13,-0.20
2013,10,29,09,14,-0.20
2013,10,29,09,15,-0.20
2013,10,29,09,16,-0.20
2013,10,29,09,17,-0.20
2013,10,29,09,18,-0.20
2013,10,29,09,19,-0.20
2013,10,29,09,20,-0.20
2013,10,29,09,21,-0.20
2013,10,29,09,22,-0.20
2013,10,29,09,23,-0.20
2013,10,29,09,24,-0.20
2013,10,29,09,25,-0.20
2013,10,29,09,26,-0.10
2013,10,29,09,27,-0.10
2013,10,29,09,28,-0.10
2013,10,29,09,29,-0.10
2013,10,29,09,30,-0.10
2013,10,29,09,31,-0.10
2013,10,29,09,32,0.00
2013,10,29,09,33,0.00
2013,10,29,09,34,0.10
2013,10,29,09,35,0.10
2013,10,29,09,36,0.20
2013,10,29,09,37,0.20
2013,10,29,09,38,0.30
2013,10,29,09,39,0.30
2013,10,29,09,40,0.40
2013,10,29,09,41,0.40
2013,10,29,09,42,0.50
2013,10,29,09,43,0.50
2013,10,29,09,44,0.60
2013,10,29,09,45,0.70
2013,10,29,09,46,0.80
2013,10,29,09,47,0.80
2013,10,29,09,48,0.90
2013,10,29,09,49,1.00
2013,10,29,09,50,1.00
2013,10,29,09,51,1.10
2013,10,29,09,52,1.10
2013,10,29,09,53,1.10
2013,10,29,09,54,1.10
2013,10,29,09,55,1.10
2013,10,29,09,56,1.10
2013,10,29,09,57,1.10
2013,10,29,09,58,1.10
2013,10,29,09,59,1.20
2013,10,29,10,00,1.20
2013,10,29,10,01,1.20
2013,10,29,10,02,1.20
2013,10,29,10,03,1.30
2013,10,29,10,04,1.30
2013,10,29,10,05,1.40
2013,10,29,10,06,1.40
2013,10,29,10,07,1.50
2013,10,29,10,08,1.60
2013,10,29,10,09,1.70
2013,10,29,10,10,1.80
2013,10,29,10,11,1.90
2013,10,29,10,12,1.90
2013,10,29,10,13,2.00
2013,10,29,10,14,2.10
2013,10,29,10,15,2.20
2013,10,29,10,16,2.20
2013,10,29,10,17,2.30
2013,10,29,10,18,2.40
2013,10,29,10,19,2.50
2013,10,29,10,20,2.50
2013,10,29,10,21,2.60
2013,10,29,10,22,2.70
2013,10,29,10,23,2.80
2013,10,29,10,24,2.80
2013,10,29,10,25,2.90
2013,10,29,10,26,3.00
2013,10,29,10,27,3.10
2013,10,29,10,28,3.20
2013,10,29,10,29,3.30
2013,10,29,10,30,3.30
2013,10,29,10,31,3.40
2013,10,29,10,32,3.50
2013,10,29,10,33,3.50
2013,10,29,10,34,3.60
2013,10,29,10,35,3.70
2013,10,29,10,36,3.70
2013,10,29,10,37,3.80
2013,10,29,10,38,3.80
2013,10,29,10,39,3.90
2013,10,29,10,40,4.00
2013,10,29,10,41,4.00
2013,10,29,10,42,4.10
2013,10,29,10,43,4.20
2013,10,29,10,44,4.20
2013,10,29,10,45,4.30
2013,10,29,10,46,4.40
2013,10,29,10,47,4.50
2013,10,29,10,48,4.60
2013,10,29,10,49,4.70
2013,10,29,10,50,4.80
2013,10,29,10,51,4.80
2013,10,29,10,52,4.90
2013,10,29,10,53,4.90
2013,10,29,10,54,5.00
2013,10,29,10,55,5.00
2013,10,29,10,56,5.10
2013,10,29,10,57,5.20
2013,10,29,10,58,5.20
2013,10,29,10,59,5.30
2013,10,29,11,00,5.30
2013,10,29,11,01,5.30
2013,10,29,11,02,5.40
2013,10,29,11,03,5.40
2013,10,29,11,04,5.40
2013,10,29,11,05,5.50
2013,10,29,11,06,5.60
2013,10,29,11,07,5.60
2013,10,29,11,08,5.70
2013,10,29,11,09,5.70
2013,10,29,11,10,5.80
2013,10,29,11,11,5.90
2013,10,29,11,12,6.00
2013,10,29,11,13,6.10
2013,10,29,11,14,6.10
2013,10,29,11,15,6.10
2013,10,29,11,16,6.20
2013,10,29,11,17,6.20
2013,10,29,11,18,6.20
2013,10,29,11,19,6.30
2013,10,29,11,20,6.30
2013,10,29,11,21,6.40
2013,10,29,11,22,6.50
2013,10,29,11,23,6.50
2013,10,29,11,24,6.60
2013,10,29,11,25,6.70
2013,10,29,11,26,6.70
2013,10,29,11,27,6.80
2013,10,29,11,28,6.80
2013,10,29,11,29,6.80
2013,10,29,11,30,6.90
2013,10,29,11,31,7.00
2013,10,29,11,32,7.00
2013,10,29,11,33,7.10
2013,10,29,11,34,7.20
2013,10,29,11,35,7.20
2013,10,29,11,36,7.30
2013,10,29,11,37,7.40
2013,10,29,11,38,7.40
2013,10,29,11,39,7.50
2013,10,29,11,40,7.50
2013,10,29,11,41,7.60
2013,10,29,11,42,7.70
2013,10,29,11,43,7.80
2013,10,29,11,44,7.80
2013,10,29,11,45,7.80
2013,10,29,11,46,7.80
2013,10,29,11,47,7.90
2013,10,29,11,48,7.90
2013,10,29,11,49,8.00
2013,10,29,11,50,8.00
2013,10,29,11,51,8.10
2013,10,29,11,52,8.20
2013,10,29,11,53,8.20
2013,10,29,11,54,8.20
2013,10,29,11,55,8.30
2013,10,29,11,56,8.30
2013,10,29,11,57,8.40
2013,10,29,11,58,8.40
2013,10,29,11,59,8.50
2013,10,29,12,00,8.60
2013,10,29,12,01,8.70
2013,10,29,12,02,8.70
2013,10,29,12,03,8.80
2013,10,29,12,04,8.90
2013,10,29,12,05,9.00
2013,10,29,12,06,9.00
2013,10,29,12,07,9.10
2013,10,29,12,08,9.20
2013,10,29,12,09,9.30
2013,10,29,12,10,9.30
2013,10,29,12,11,9.40
2013,10,29,12,12,9.50
2013,10,29,12,13,9.50
2013,10,29,12,14,9.60
2013,10,29,12,15,9.60
2013,10,29,12,16,9.70
2013,10,29,12,17,9.70
2013,10,29,12,18,9.80
2013,10,29,12,19,9.90
2013,10,29,12,20,10.00
2013,10,29,12,21,10.10
2013,10,29,12,22,10.20
2013,10,29,12,23,10.30
2013,10,29,12,24,10.40
2013,10,29,12,25,10.50
2013,10,29,12,26,10.50
2013,10,29,12,27,10.60
2013,10,29,12,28,10.70
2013,10,29,12,29,10.80
2013,10,29,12,30,11.00
2013,10,29,12,31,11.10
2013,10,29,12,32,11.20
2013,10,29,12,33,11.20
2013,10,29,12,34,11.30
2013,10,29,12,35,11.40
2013,10,29,12,36,11.50
2013,10,29,12,37,11.60
2013,10,29,12,38,11.70
2013,10,29,12,39,11.80
2013,10,29,12,40,11.80
2013,10,29,12,41,11.90
2013,10,29,12,42,11.90
2013,10,29,12,43,12.00
2013,10,29,12,44,12.10
2013,10,29,12,45,12.20
2013,10,29,12,46,12.20
2013,10,29,12,47,12.30
2013,10,29,12,48,12.40
2013,10,29,12,49,12.40
2013,10,29,12,50,12.40
2013,10,29,12,51,12.40
2013,10,29,12,52,12.50
2013,10,29,12,53,12.50
2013,10,29,12,54,12.60
2013,10,29,12,55,12.70
2013,10,29,12,56,12.70
2013,10,29,12,57,12.80
2013,10,29,12,58,12.80
2013,10,29,12,59,12.80
2013,10,29,13,00,12.80
2013,10,29,13,01,12.80
2013,10,29,13,02,12.80
2013,10,29,13,03,12.70
2013,10,29,13,04,12.50
2013,10,29,13,05,12.50
2013,10,29,13,06,12.40
2013,10,29,13,07,12.30
2013,10,29,13,08,12.20
2013,10,29,13,09,12.10
2013,10,29,13,10,12.10
2013,10,29,13,11,12.00
2013,10,29,13,12,12.00
2013,10,29,13,13,12.00
2013,10,29,13,14,11.90
2013,10,29,13,15,11.80
2013,10,29,13,16,11.70
2013,10,29,13,17,11.60
2013,10,29,13,18,11.50
2013,10,29,13,19,11.40
2013,10,29,13,20,11.40
2013,10,29,13,21,11.40
2013,10,29,13,22,11.30
2013,10,29,13,23,11.20
2013,10,29,13,24,11.20
2013,10,29,13,25,11.20
2013,10,29,13,26,11.20
2013,10,29,13,27,11.20
2013,10,29,13,28,11.20
2013,10,29,13,29,11.20
2013,10,29,13,30,11.20
2013,10,29,13,31,11.20
2013,10,29,13,32,11.20
2013,10,29,13,33,11.20
2013,10,29,13,34,11.30
2013,10,29,13,35,11.30
2013,10,29,13,36,11.30
2013,10,29,13,37,11.40
2013,10,29,13,38,11.40
2013,10,29,13,39,11.30
2013,10,29,13,40,11.30
2013,10,29,13,41,11.20
2013,10,29,13,42,11.20
2013,10,29,13,43,11.10
2013,10,29,13,44,11.10
2013,10,29,13,45,11.10
2013,10,29,13,46,11.10
2013,10,29,13,47,11.10
2013,10,29,13,48,11.10
2013,10,29,13,49,11.10
2013,10,29,13,50,11.10
2013,10,29,13,51,11.20
2013,10,29,13,52,11.20
2013,10,29,13,53,11.30
2013,10,29,13,54,11.30
2013,10,29,13,55,11.40
2013,10,29,13,56,11.40
2013,10,29,13,57,11.40
2013,10,29,13,58,11.40
2013,10,29,13,59,11.50
2013,10,29,14,00,11.50
2013,10,29,14,01,11.50
2013,10,29,14,02,11.40
2013,10,29,14,03,11.40
2013,10,29,14,04,11.40
2013,10,29,14,05,11.50
2013,10,29,14,06,11.60
2013,10,29,14,07,11.60
2013,10,29,14,08,11.60
2013,10,29,14,09,11.70
2013,10,29,14,10,11.80
2013,10,29,14,11,11.80
2013,10,29,14,12,11.90
2013,10,29,14,13,11.90
2013,10,29,14,14,11.90
2013,10,29,14,15,12.00
2013,10,29,14,16,11.90
2013,10,29,14,17,11.90
2013,10,29,14,18,11.90
2013,10,29,14,19,11.90
2013,10,29,14,20,11.80
2013,10,29,14,21,11.80
2013,10,29,14,22,11.70
2013,10,29,14,23,11.70
2013,10,29,14,24,11.70
2013,10,29,14,25,11.70
2013,10,29,14,26,11.70
2013,10,29,14,27,11.70
2013,10,29,14,28,11.60
2013,10,29,14,29,11.60
2013,10,29,14,30,11.60
2013,10,29,14,31,11.70
2013,10,29,14,32,11.70
2013,10,29,14,33,11.70
2013,10,29,14,34,11.70
2013,10,29,14,35,11.80
2013,10,29,14,36,11.80
2013,10,29,14,37,11.80
2013,10,29,14,38,11.80
2013,10,29,14,39,11.80
2013,10,29,14,40,11.80
2013,10,29,14,41,11.70
2013,10,29,14,42,11.70
2013,10,29,14,43,11.70
2013,10,29,14,44,11.60
2013,10,29,14,45,11.60
2013,10,29,14,46,11.50
2013,10,29,14,47,11.50
2013,10,29,14,48,11.40
2013,10,29,14,49,11.40
2013,10,29,14,50,11.40
2013,10,29,14,51,11.40
2013,10,29,14,52,11.40
2013,10,29,14,53,11.40
2013,10,29,14,54,11.40
2013,10,29,14,55,11.40
2013,10,29,14,56,11.40
2013,10,29,14,57,11.40
2013,10,29,14,58,11.50
2013,10,29,14,59,11.50
2013,10,29,15,00,11.50
2013,10,29,15,01,11.60
2013,10,29,15,02,11.60
2013,10,29,15,03,11.70
2013,10,29,15,04,11.70
2013,10,29,15,05,11.70
2013,10,29,15,06,11.80
2013,10,29,15,07,11.80
2013,10,29,15,08,11.90
2013,10,29,15,09,11.90
2013,10,29,15,10,12.00
2013,10,29,15,11,12.10
2013,10,29,15,12,12.20
2013,10,29,15,13,12.30
2013,10,29,15,14,12.30
2013,10,29,15,15,12.40
2013,10,29,15,16,12.50
2013,10,29,15,17,12.60
2013,10,29,15,18,12.60
2013,10,29,15,19,12.70
2013,10,29,15,20,12.70
2013,10,29,15,21,12.70
2013,10,29,15,22,12.70
2013,10,29,15,23,12.70
2013,10,29,15,24,12.80
2013,10,29,15,25,12.80
2013,10,29,15,26,12.90
2013,10,29,15,27,12.90
2013,10,29,15,28,12.90
2013,10,29,15,29,12.90
2013,10,29,15,30,13.00
2013,10,29,15,31,13.00
2013,10,29,15,32,13.00
2013,10,29,15,33,13.00
2013,10,29,15,34,13.00
2013,10,29,15,35,12.90
2013,10,29,15,36,12.90
2013,10,29,15,37,12.90
2013,10,29,15,38,12.90
2013,10,29,15,39,12.90
2013,10,29,15,40,12.90
2013,10,29,15,41,12.80
2013,10,29,15,42,12.90
2013,10,29,15,43,12.90
2013,10,29,15,44,12.90
2013,10,29,15,45,12.80
2013,10,29,15,46,12.90
2013,10,29,15,47,12.90
2013,10,29,15,48,12.90
2013,10,29,15,49,12.80
2013,10,29,15,50,12.80
2013,10,29,15,51,12.80
2013,10,29,15,52,12.80
2013,10,29,15,53,12.80
2013,10,29,15,54,12.80
2013,10,29,15,55,12.80
2013,10,29,15,56,12.80
2013,10,29,15,57,12.80
2013,10,29,15,58,12.80
2013,10,29,15,59,12.70
2013,10,29,16,00,12.70
2013,10,29,16,01,12.60
2013,10,29,16,02,12.60
2013,10,29,16,03,12.60
2013,10,29,16,04,12.60
2013,10,29,16,05,12.60
2013,10,29,16,06,12.60
2013,10,29,16,07,12.50
2013,10,29,16,08,12.50
2013,10,29,16,09,12.40
2013,10,29,16,10,12.40
2013,10,29,16,11,12.40
2013,10,29,16,12,12.30
2013,10,29,16,13,12.30
2013,10,29,16,14,12.30
2013,10,29,16,15,12.30
2013,10,29,16,16,12.30
2013,10,29,16,17,12.30
2013,10,29,16,18,12.30
2013,10,29,16,19,12.30
2013,10,29,16,20,12.40
2013,10,29,16,21,12.40
2013,10,29,16,22,12.40
2013,10,29,16,23,12.40
2013,10,29,16,24,12.50
2013,10,29,16,25,12.50
2013,10,29,16,26,12.40
2013,10,29,16,27,12.40
2013,10,29,16,28,12.40
2013,10,29,16,29,12.40
2013,10,29,16,30,12.30
2013,10,29,16,31,12.20
2013,10,29,16,32,12.20
2013,10,29,16,33,12.10
2013,10,29,16,34,12.00
2013,10,29,16,35,12.00
2013,10,29,16,36,11.90
2013,10,29,16,37,11.90
2013,10,29,16,38,11.80
2013,10,29,16,39,11.80
2013,10,29,16,40,11.70
2013,10,29,16,41,11.70
2013,10,29,16,42,11.70
2013,10,29,16,43,11.70
2013,10,29,16,44,11.70
2013,10,29,16,45,11.70
2013,10,29,16,46,11.70
2013,10,29,16,47,11.60
2013,10,29,16,48,11.60
2013,10,29,16,49,11.60
2013,10,29,16,50,11.50
2013,10,29,16,51,11.50
2013,10,29,16,52,11.50
2013,10,29,16,53,11.40
2013,10,29,16,54,11.40
2013,10,29,16,55,11.40
2013,10,29,16,56,11.30
2013,10,29,16,57,11.30
2013,10,29,16,58,11.30
2013,10,29,16,59,11.30
2013,10,29,17,00,11.20
2013,10,29,17,01,11.20
2013,10,29,17,02,11.10
2013,10,29,17,03,11.10
2013,10,29,17,04,11.00
2013,10,29,17,05,10.90
2013,10,29,17,06,10.90
2013,10,29,17,07,10.80
2013,10,29,17,08,10.80
2013,10,29,17,09,10.70
2013,10,29,17,10,10.70
2013,10,29,17,11,10.70
2013,10,29,17,12,10.60
2013,10,29,17,13,10.60
2013,10,29,17,14,10.50
2013,10,29,17,15,10.40
2013,10,29,17,16,10.40
2013,10,29,17,17,10.40
2013,10,29,17,18,10.30
2013,10,29,17,19,10.30
2013,10,29,17,20,10.20
2013,10,29,17,21,10.10
2013,10,29,17,22,10.10
2013,10,29,17,23,10.00
2013,10,29,17,24,10.00
2013,10,29,17,25,9.90
2013,10,29,17,26,9.90
2013,10,29,17,27,9.90
2013,10,29,17,28,9.80
2013,10,29,17,29,9.80
2013,10,29,17,30,9.70
2013,10,29,17,31,9.70
2013,10,29,17,32,9.60
2013,10,29,17,33,9.60
2013,10,29,17,34,9.60
2013,10,29,17,35,9.50
2013,10,29,17,36,9.40
2013,10,29,17,37,9.40
2013,10,29,17,38,9.30
2013,10,29,17,39,9.30
2013,10,29,17,40,9.30
2013,10,29,17,41,9.20
2013,10,29,17,42,9.20
2013,10,29,17,43,9.20
2013,10,29,17,44,9.20
2013,10,29,17,45,9.20
2013,10,29,17,46,9.10
2013,10,29,17,47,9.10
2013,10,29,17,48,9.10